Location: Godzisko
(49.9648°N, 19.4576°E)
Time: 06:18:12
(UTC+00:00)

Cosmos 1975 - Pass Details

Date: 20 April 2021
Orbit: 540 x 561 km, 82.5° (Epoch: 06 May)

Event Time Altitude Azimuth Distance (km) Brightness Sun altitude
Rises 00:22:21 0° 352° (N) 2,740 7.2 -24.6°
Reaches altitude 10° 00:24:33 10° 355° (N) 1,837 6.2 -24.5°
Enters shadow 00:28:32 65° 74° (ENE) 605 3.0 -24.2°
